Charlevoix, MI

5:34 PM EDT on August 20, 2017 (GMT -0400)
Charlevoix Municipal

Weather History for KCVX - October, 2011

Change the Weather History Date:

Monday, October 3, 2011

  Actual Average Record
Temperature  
Mean Temperature 48 °F -  
Max Temperature 60 °F 64 °F 75 °F (2001)
Min Temperature 37 °F 44 °F 37 °F (2011)
Degree Days  
Heating Degree Days 16    
Moisture  
Dew Point 44 °F    
Average Humidity 83    
Maximum Humidity 100    
Minimum Humidity 55    
Precipitation  
Precipitation 0.00 in - - ()
Sea Level Pressure  
Sea Level Pressure 30.21 in    
Wind  
Wind Speed 2 mph (North)    
Max Wind Speed 10 mph    
Max Gust Speed -    
Visibility 9 miles    
Events Fog    
Averages and records for this station are not official NWS values.
T = Trace of Precipitation, MM = Missing Value Source: NWS Daily Summary

Daily Weather History Graph

Daily Weather History Graph

Search for Another Location

Airport or City:

Trip Planner

Search our weather history database for the weather conditions in past years. The results will help you decide how hot, cold, wet, or windy it might be!

Date:

Astronomy

Oct. 03, 2011 Rise Set
Actual Time 7:41 AM EDT 7:18 PM EDT
Civil Twilight 7:11 AM EDT 7:47 PM EDT
Nautical Twilight 6:37 AM EDT 8:21 PM EDT
Astronomical Twilight 6:03 AM EDT 8:56 PM EDT
Moon 2:53 PM EDT (10/3) No Moon Set
Length of Visible Light 12h 35m
Length of Day
11h 36m
Waxing Crescent, 45% of the Moon is Illuminated
Oct 3
Waxing Crescent
Oct 3
First Quarter
Oct 11
Full
Oct 19
Last Quarter
Oct 26
New

Hourly Weather History & Observations

Time (EDT) Temp. Windchill Dew Point Humidity Pressure Visibility Wind Dir Wind Speed Gust Speed Precip Events Conditions
12:15 AM 42.8 °F - 41.0 °F 93% 30.17 in 10.0 mi Calm Calm - N/A   Clear
12:34 AM 42.8 °F - 41.0 °F 93% 30.17 in 10.0 mi Calm Calm - N/A   Clear
12:54 AM 42.8 °F - 41.0 °F 93% 30.16 in 10.0 mi Calm Calm - N/A   Clear
1:15 AM 44.6 °F 43.1 °F 44.6 °F 100% 30.16 in 10.0 mi North 3.5 mph - N/A   Clear
1:34 AM 46.4 °F - 44.6 °F 93% 30.15 in 10.0 mi Calm Calm - N/A   Clear
1:54 AM 50.0 °F - 46.4 °F 87% 30.16 in 10.0 mi North 3.5 mph - N/A   Clear
2:15 AM 48.2 °F - 44.6 °F 87% 30.17 in 10.0 mi Calm Calm - N/A   Clear
2:34 AM 46.4 °F 45.2 °F 44.6 °F 93% 30.17 in 10.0 mi NNE 3.5 mph - N/A   Clear
2:54 AM 46.4 °F 44.3 °F 44.6 °F 93% 30.17 in 10.0 mi North 4.6 mph - N/A   Clear
3:15 AM 50.0 °F - 48.2 °F 94% 30.17 in 10.0 mi Calm Calm - N/A   Clear
3:34 AM 44.6 °F - 42.8 °F 93% 30.17 in 10.0 mi Calm Calm - N/A   Clear
3:55 AM 42.8 °F - 41.0 °F 93% 30.17 in 10.0 mi Calm Calm - N/A   Clear
4:15 AM 41.0 °F - 41.0 °F 100% 30.17 in 10.0 mi Calm Calm - N/A   Clear
4:34 AM 41.0 °F - 39.2 °F 93% 30.17 in 7.0 mi Calm Calm - N/A   Clear
4:55 AM 39.2 °F - 39.2 °F 100% 30.17 in 10.0 mi Calm Calm - N/A   Clear
5:15 AM 39.2 °F - 39.2 °F 100% 30.18 in 10.0 mi Calm Calm - N/A   Clear
5:34 AM 41.0 °F - 39.2 °F 93% 30.19 in 1.2 mi Calm Calm - N/A   Mostly Cloudy
5:55 AM 39.2 °F - 39.2 °F 100% 30.19 in 0.5 mi Calm Calm - N/A Fog Fog
6:14 AM 39.2 °F - 39.2 °F 100% 30.19 in 1.2 mi Calm Calm - N/A   Mist
6:34 AM 39.2 °F - 39.2 °F 100% 30.20 in 10.0 mi Calm Calm - N/A   Clear
6:55 AM 39.2 °F - 37.4 °F 93% 30.21 in 10.0 mi Calm Calm - N/A   Clear
7:14 AM 39.2 °F - 39.2 °F 100% 30.22 in 10.0 mi Calm Calm - N/A   Clear
7:34 AM 37.4 °F - 37.4 °F 100% 30.22 in 2.0 mi Calm Calm - N/A   Clear
7:55 AM 39.2 °F 37.0 °F 39.2 °F 100% 30.22 in 0.2 mi SE 3.5 mph - N/A Fog Fog
8:14 AM 41.0 °F - 39.2 °F 93% 30.22 in 0.2 mi Calm Calm - N/A Fog Fog
8:34 AM 41.0 °F - 41.0 °F 100% 30.22 in 7.0 mi Calm Calm - N/A   Scattered Clouds
9:14 AM 44.6 °F 43.1 °F 44.6 °F 100% 30.24 in 1.0 mi SE 3.5 mph - N/A   Mostly Cloudy
9:34 AM 46.4 °F - 46.4 °F 100% 30.24 in 5.0 mi Calm Calm - N/A   Mostly Cloudy
9:55 AM 50.0 °F - 48.2 °F 94% 30.25 in 10.0 mi Calm Calm - N/A   Clear
10:15 AM 50.0 °F - 48.2 °F 94% 30.25 in 10.0 mi Calm Calm - N/A   Clear
10:35 AM 53.6 °F - 50.0 °F 88% 30.25 in 10.0 mi NNE 3.5 mph - N/A   Clear
10:55 AM 55.4 °F - 48.2 °F 77% 30.25 in 10.0 mi North 6.9 mph - N/A   Clear
11:35 AM 57.2 °F - 46.4 °F 67% 30.25 in 10.0 mi North 5.8 mph - N/A   Clear
11:55 AM 59.0 °F - 46.4 °F 63% 30.25 in 10.0 mi North 6.9 mph - N/A   Clear
12:14 PM 59.0 °F - 46.4 °F 63% 30.25 in 10.0 mi North 9.2 mph - N/A   Clear
12:35 PM 59.0 °F - 48.2 °F 67% 30.25 in 10.0 mi North 8.1 mph - N/A   Clear
12:55 PM 59.0 °F - 50.0 °F 72% 30.25 in 10.0 mi North 8.1 mph - N/A   Clear
1:14 PM 59.0 °F - 48.2 °F 67% 30.25 in 10.0 mi North 9.2 mph - N/A   Clear
2:14 PM 60.8 °F - 48.2 °F 63% 30.23 in 10.0 mi North 8.1 mph - N/A   Clear
2:35 PM 59.0 °F - 46.4 °F 63% 30.23 in 10.0 mi North 10.4 mph - N/A   Clear
2:54 PM 59.0 °F - 48.2 °F 67% 30.22 in 10.0 mi North 8.1 mph - N/A   Clear
3:14 PM 59.0 °F - 46.4 °F 63% 30.22 in 10.0 mi North 9.2 mph - N/A   Clear
3:35 PM 59.0 °F - 46.4 °F 63% 30.23 in 10.0 mi North 9.2 mph - N/A   Clear
3:54 PM 60.8 °F - 44.6 °F 55% 30.22 in 10.0 mi North 8.1 mph - N/A   Clear
4:14 PM 60.8 °F - 44.6 °F 55% 30.22 in 10.0 mi North 8.1 mph - N/A   Clear
4:35 PM 60.8 °F - 44.6 °F 55% 30.22 in 10.0 mi North 5.8 mph - N/A   Clear
4:54 PM 60.8 °F - 46.4 °F 59% 30.22 in 10.0 mi NNW 5.8 mph - N/A   Clear
5:15 PM 60.8 °F - 46.4 °F 59% 30.22 in 10.0 mi North 5.8 mph - N/A   Clear
5:35 PM 60.8 °F - 44.6 °F 55% 30.22 in 10.0 mi North 5.8 mph - N/A   Clear
6:15 PM 59.0 °F - 46.4 °F 63% 30.22 in 10.0 mi NNW 4.6 mph - N/A   Clear
6:35 PM 57.2 °F - 46.4 °F 67% 30.22 in 10.0 mi Calm Calm - N/A   Clear
6:54 PM 57.2 °F - 46.4 °F 67% 30.23 in 10.0 mi Calm Calm - N/A   Clear
7:15 PM 55.4 °F - 46.4 °F 72% 30.22 in 10.0 mi Calm Calm - N/A   Clear
7:34 PM 53.6 °F - 46.4 °F 77% 30.22 in 10.0 mi Calm Calm - N/A   Clear
7:55 PM 50.0 °F - 46.4 °F 87% 30.22 in 10.0 mi Calm Calm - N/A   Clear
8:34 PM 48.2 °F - 46.4 °F 93% 30.23 in 10.0 mi West 3.5 mph - N/A   Clear
8:55 PM 48.2 °F - 44.6 °F 87% 30.22 in 10.0 mi Calm Calm - N/A   Clear
9:34 PM 46.4 °F - 44.6 °F 93% 30.23 in 10.0 mi Calm Calm - N/A   Clear
9:55 PM 46.4 °F - 44.6 °F 93% 30.23 in 10.0 mi Calm Calm - N/A   Clear
10:15 PM 46.4 °F - 44.6 °F 93% 30.24 in 10.0 mi Calm Calm - N/A   Clear
10:34 PM 46.4 °F - 44.6 °F 93% 30.25 in 10.0 mi Calm Calm - N/A   Clear
10:55 PM 46.4 °F - 44.6 °F 93% 30.25 in 10.0 mi Calm Calm - N/A   Clear
11:14 PM 44.6 °F - 42.8 °F 93% 30.25 in 10.0 mi Calm Calm - N/A   Clear
11:34 PM 44.6 °F - 42.8 °F 93% 30.25 in 10.0 mi Calm Calm - N/A   Clear
11:55 PM 44.6 °F - 42.8 °F 93% 30.25 in 10.0 mi Calm Calm - N/A   Clear